TimePST,TemperatureF,Dew PointF,Humidity,Sea Level PressureIn,VisibilityMPH,Wind Direction,Wind SpeedMPH,Gust SpeedMPH,PrecipitationIn,Events,Conditions,WindDirDegrees,DateUTC
12:53 AM,59.0,42.1,53,29.91,10.0,NE,6.9,-,N/A,,Mostly Cloudy,40,2013-11-28 08:53:00
1:53 AM,57.0,41.0,55,29.91,10.0,NE,5.8,-,N/A,,Mostly Cloudy,50,2013-11-28 09:53:00
2:53 AM,55.9,41.0,57,29.90,10.0,NE,6.9,-,N/A,,Mostly Cloudy,50,2013-11-28 10:53:00
3:53 AM,55.9,41.0,57,29.89,10.0,ESE,3.5,-,N/A,,Mostly Cloudy,120,2013-11-28 11:53:00
4:53 AM,55.9,39.0,53,29.89,10.0,Calm,Calm,-,N/A,,Scattered Clouds,0,2013-11-28 12:53:00
5:53 AM,57.0,37.9,49,29.90,10.0,NNE,3.5,-,N/A,,Mostly Cloudy,30,2013-11-28 13:53:00
6:53 AM,57.0,37.9,49,29.94,10.0,Calm,Calm,-,N/A,,Mostly Cloudy,0,2013-11-28 14:53:00
7:53 AM,57.9,37.9,47,29.94,10.0,NE,8.1,-,N/A,,Mostly Cloudy,50,2013-11-28 15:53:00
8:53 AM,60.1,37.9,44,29.96,10.0,ENE,8.1,-,N/A,,Mostly Cloudy,70,2013-11-28 16:53:00
9:53 AM,64.9,48.0,54,29.98,10.0,ESE,5.8,-,N/A,,Mostly Cloudy,120,2013-11-28 17:53:00
10:53 AM,68.0,46.0,45,29.98,10.0,ESE,8.1,-,N/A,,Mostly Cloudy,110,2013-11-28 18:53:00
11:53 AM,69.1,42.1,38,29.96,10.0,SSE,10.4,18.4,N/A,,Scattered Clouds,160,2013-11-28 19:53:00
12:53 PM,68.0,45.0,43,29.95,10.0,SSE,11.5,-,N/A,,Mostly Cloudy,150,2013-11-28 20:53:00
1:53 PM,68.0,48.0,49,29.95,10.0,ESE,8.1,-,N/A,,Mostly Cloudy,120,2013-11-28 21:53:00
2:53 PM,66.9,48.0,51,29.95,10.0,SE,6.9,-,N/A,,Mostly Cloudy,130,2013-11-28 22:53:00
3:53 PM,66.0,45.0,47,29.96,10.0,SSE,6.9,-,N/A,,Scattered Clouds,150,2013-11-28 23:53:00
4:53 PM,64.0,48.9,58,29.97,10.0,SE,5.8,-,N/A,,Scattered Clouds,130,2013-11-29 00:53:00
5:53 PM,63.0,50.0,63,30.00,10.0,SSE,6.9,-,N/A,,Scattered Clouds,160,2013-11-29 01:53:00
6:53 PM,62.1,52.0,70,30.01,10.0,SSE,3.5,-,N/A,,Mostly Cloudy,150,2013-11-29 02:53:00
7:53 PM,62.1,53.1,72,30.03,10.0,Calm,Calm,-,N/A,,Mostly Cloudy,0,2013-11-29 03:53:00
8:53 PM,61.0,53.1,75,30.04,10.0,East,3.5,-,N/A,,Mostly Cloudy,90,2013-11-29 04:53:00
9:53 PM,60.1,52.0,75,30.05,10.0,East,4.6,-,N/A,,Partly Cloudy,90,2013-11-29 05:53:00
10:53 PM,59.0,52.0,78,30.05,10.0,East,4.6,-,N/A,,Partly Cloudy,80,2013-11-29 06:53:00
11:53 PM,60.1,54.0,80,30.05,10.0,East,3.5,-,N/A,,Mostly Cloudy,100,2013-11-29 07:53:00